www.pogodaiklimat.ru

Погода и климат >> Архив погоды >> Албания >> Шкодра


ПОГОДА в Шкодре

  • Прогноз погоды в Шкодре
  • Монитор погоды в Шкодре

АРХИВ ПОГОДЫ в Шкодре

Время (UTC), дата Ветер
(напр.,м/с)
 
Видим.   Явления Облачность Т
(С)
Тd
(С)
f
(%)
Тe
(С)
Тes
(С)
Комфортность P
(гПа)
Po
(гПа)
Тmin
(С)
Tmax
(С)
R
(мм)
R24
(мм)
S
(см)
12 14.08 ЮЗ 8 20 км 3/3 1500 м
[Cu med, cong]
+31.6 +26.4 74 +48 +50 опасность
перегрева
1008.6 1003.7
15 14.08 З 10 15 км в посл. час дождь 10/10 1500 м
[Sc]
+30.4 +26.6 80 +47 +47 опасность
перегрева
1010.8 1005.9
18 14.08 С 4 20 км {морось} 3/0
[Ac trans]
+25.0 +21.9 83 +32 +32 очень
душно
1009.9 1004.9 +32.0 0.4
21 14.08 В 6 10 км ясно +23.0 +18.2 74 +29 +29 очень
душно
1010.7 1005.7
00 15.08 В 4 10 км ясно +21.8 +18.1 80 +27 +27 душно 1011.1 1006.1
03 15.08 В 4 10 км ясно +19.6 +18.8 95 +22 +22 комфорт 1011.3 1006.2
06 15.08 штиль 0 20 км ясно +19.6 +18.9 96 +22 +27 комфорт 1011.7 1006.6 +18.4
09 15.08 З 4 20 км 3/0
[Ac trans]
+26.5 +17.5 58 +31 +39 душно 1011.8 1006.8
12 15.08 З 4 20 км 4/0
[Ac trans]
+28.5 +18.6 55 +34 +41 очень
душно
1011.6 1006.7
15 15.08 СЗ 2 20 км 3/0
[Ac trans]
+29.4 +16.5 46 +33 +37 душно 1011.0 1006.1
18 15.08 ЮВ 6 20 км ясно +28.0 +15.3 46 +31 +31 душно 1010.4 1005.5 +30.6
21 15.08 ЮВ 6 10 км 3/0
[Ac trans]
+24.6 +18.9 71 +30 +30 очень
душно
1011.8 1006.9
00 16.08 ЮВ 4 10 км ясно +23.2 +21.5 90 +31 +31 очень
душно
1012.7 1007.7
03 16.08 ЮВ 4 10 км ясно +22.4 +17.2 72 +27 +27 душно 1013.9 1008.8
06 16.08 ЮВ 6 20 км 3/0
[Ac trans]
+21.0 +13.0 60 +23 +25 комфорт 1014.5 1009.4 +20.6
09 16.08 ЮВ 4 20 км 1/0
[Ac trans]
+26.0 +15.4 52 +29 +38 душно 1014.8 1009.8
12 16.08 СЗ 6 20 км 3/3 1080 м
[Cu med, cong]
+29.0 +17.5 50 +33 +37 очень
душно
1013.5 1008.6
15 16.08 штиль 0 20 км 1/1 1380 м
[Cu hum]
+30.0 +16.8 45 +34 +39 очень
душно
1013.0 1008.1
18 16.08 штиль 0 20 км 1/1 1500 м
[Cu med, cong]
+27.6 +17.4 54 +32 +32 очень
душно
1012.8 1007.8 +30.0
21 16.08 В 6 10 км 4/4 1500 м
[Cu med, cong]
+24.0 +13.0 50 +26 +26 жарко 1013.7 1008.7
00 17.08 В 4 10 км ясно +23.4 +16.7 66 +28 +28 душно 1014.7 1009.7
03 17.08 штиль 0 10 км ясно +28.6 +24.1 77 +40 +40 очень
душно
1015.4 1010.4
06 17.08 С 2 20 км ясно +20.4 +15.4 73 +24 +27 комфорт 1015.5 1010.4 +18.4
09 17.08 СЗ 4 20 км ясно +26.0 +16.8 57 +30 +39 душно 1016.4 1011.4
12 17.08 СЗ 6 20 км ясно +28.6 +15.1 44 +31 +37 жарко 1016.2 1011.2
15 17.08 штиль 0 20 км 8/0
[Ci sp]
+28.0 +13.1 40 +30 +35 жарко 1014.8 1009.8
18 17.08 СЗ 4 20 км 1/0
[Ci sp]
+28.4 +14.2 42 +31 +31 душно 1014.2 1009.2 +30.0
21 17.08 штиль 0 10 км ясно +21.0 +17.4 80 +25 +25 комфорт 1014.5 1009.5
00 18.08 штиль 0 10 км ясно +20.0 +17.5 86 +23 +23 комфорт 1014.5 1009.5
03 18.08 ЮВ 4 10 км 3/0
[Ci sp]
+18.6 +16.5 88 +19 +19 1015.3 1010.2
06 18.08 В 2 20 км ясно +19.6 +16.0 80 +22 +26 комфорт 1015.7 1010.6 +18.0
09 18.08 СЗ 2 20 км 1/0
[Ci sp]
+26.4 +16.9 56 +30 +44 душно 1015.6 1010.6
12 18.08 З 6 20 км ясно +30.5 +14.6 38 +33 +39 душно 1016.3 1011.4
18 18.08 Ю 6 20 км ясно +30.0 +14.9 40 +32 +32 жарко 1014.4 1009.5 +32.2
21 18.08 В 6 10 км ясно +23.0 +15.8 64 +27 +27 душно 1015.5 1010.5
00 19.08 В 6 10 км ясно +21.2 +17.0 77 +25 +25 комфорт 1016.1 1011.0
03 19.08 В 6 10 км ясно +19.4 +17.4 88 +21 +21 комфорт 1015.6 1010.5
06 19.08 В 6 20 км ясно +20.2 +17.4 84 +23 +24 комфорт 1016.1 1011.0 +18.6
09 19.08 З 6 20 км ясно +24.2 +16.9 64 +28 +33 душно 1016.6 1011.6
12 19.08 СЗ 6 20 км ясно +31.6 +18.2 45 +36 +42 очень
душно
1016.5 1011.6
15 19.08 Ю 8 20 км ясно +32.0 +20.3 50 +39 +39 очень
душно
1015.5 1010.7
18 19.08 Ю 6 20 км ясно +29.4 +21.4 62 +37 +37 очень
душно
1015.2 1010.3 +33.2
21 19.08 ЮВ 6 10 км ясно +25.2 +22.7 86 +33 +33 очень
душно
1015.9 1010.9
00 20.08 ЮВ 4 10 км ясно +23.0 +21.5 91 +31 +31 очень
душно
1016.7 1011.7
03 20.08 ЮВ 4 10 км ясно +21.2 +20.7 97 +26 +26 душно 1017.1 1012.0
06 20.08 ЮВ 2 20 км ясно +19.4 +18.6 95 +22 +25 комфорт 1017.7 1012.6 +19.0
09 20.08 СЗ 4 20 км ясно +28.0 +20.3 63 +34 +44 очень
душно
1017.2 1012.3
12 20.08 З 6 20 км ясно +33.2 +19.7 45 +39 +45 очень
душно
1016.7 1011.9
15 20.08 штиль 0 20 км ясно +35.2 +17.9 36 +39 +45 очень
душно
1015.3 1010.5
18 20.08 ЮВ 6 20 км ясно +30.0 +20.8 58 +37 +37 очень
душно
1015.6 1010.7 +35.4
21 20.08 штиль 0 10 км ясно +25.0 +22.2 84 +32 +32 очень
душно
1016.6 1011.7
00 21.08 ЮВ 4 10 км ясно +22.8 +20.7 88 +30 +30 очень
душно
1017.7 1012.6
03 21.08 ЮВ 4 10 км ясно +20.6 +18.9 90 +25 +25 комфорт 1017.1 1012.0
06 21.08 В 2 20 км ясно +21.6 +18.9 85 +26 +30 душно 1017.1 1012.0 +20.0

 

Местоположение метеостанции Шкодра (Албания): широта 42.10 долгота 19.53 высота над уровнем моря 43 м.

В архиве по умолчанию представлена погода в Шкодре за последнюю неделю. Архивные данные за месяц целиком и за предыдущие месяцы, начиная с января 2011 года, Вы можете получить, выбрав интересующий диапазон дат из раскрывающегося списка и нажав кнопку "Ввод!".


*Определитесь, кто Вы:
робот инопланетянин человек

Внимание! Время в таблицах - всемирное. Для получения местного времени необходимо прибавить поправку, которая равна 1 ч.

Смотрите также архив погоды в соседних городах и на ближайших метеорологических станциях:

Погода в Баре (Черногория) (35 км)
Погода в Подгорице (Черногория) (38 км)
Погода в Подгорица-Граде (Черногория) (42 км)
Погода в Тивате (Черногория) (74 км)
Погода в Пешкопии (Албания) (88 км)
Погода в Тиране (Албания) (88 км)
Погода в Никшиче (Черногория) (88 км)
Погода в Дурресе (Албания) (89 км)
Погода в Тиране Лапрака (Албания) (94 км)
Погода в Эльбасане (Албания) (114 км)

Пояснения к столбцам:

Ветер - указаны скорость ветра в м/с - средняя за 10 мин, порывы в срок и между сроками (в фигурных скобках) и направление, откуда дует ветер: С - северный, СВ - северо-восточный, В - восточный, ЮВ - юго-восточный, Ю - южный, ЮЗ - юго-западный, З - западный, СЗ - северо-западный.
Видимость - горизонтальная дальность видимости в метрах или километрах. При видимости от 1 до 10 км при отсутствии осадков обычно наблюдается дымка, при ухудшении видимости до 1 км и менее - туман. В сухую погоду видимость может ухудшаться дымом, пылью или мглою.
Явления - указаны атмосферные явления, наблюдавшиеся в срок или в последний час перед сроком; фигурными скобками обозначены явления, наблюдавшиеся между сроками (за 1-3 часа до срока); квадратными скобками обозначены град или гололедные отложения с указанием их диаметра в мм.
Облачность - указаны через наклонную черту общая и нижняя облачность в баллах и высота нижней границы облаков в метрах; квадратными скобками обозначены формы облаков: Ci - перистые, Cs - перисто-слоистые, Cc - перисто-кучевые, Ac - высококучевые, As - высокослоистые, Sc - слоисто-кучевые, Ns - слоисто-дождевые, Cu - кучевые, Cb - кучево-дождевые. Подробнее классификацию облаков см. в Атласе облаков (PDF).
T - Температура воздуха - температура, измеренная на высоте 2 м над землей.
Td - Температура точки росы - температура, при понижении до которой содержащийся в воздухе водяной пар достигнет насыщения.
f - Относительная влажность воздуха - влажноcть воздуха, измеренная на высоте 2 м над землей.
Te - Эффективная температура - температура, которую ощущает одетый по сезону человек в тени. Характеристика душности погоды. При расчете учитывается влияние влажности воздуха и скорости ветра на теплоощущения человека.
Tes - Эффективная температура на солнце - температура, которую ощущает человек, с поправкой на солнечный нагрев. Характеристика знойности погоды. Зависит от высоты солнца над горизонтом, облачности и скорости ветра. Ночью, в пасмурную погоду, а также при ветре 12 м/с и более поправка равна нулю.
P - Атмосферное давление - приведенное к уровню моря атмосферное давление.
Po - Атмосферное давление - измеренное на уровне метеостанции атмосферное давление.
Tmin - Минимальная температура - минимум температуры воздуха на высоте 2 м над землей.
Tmax - Максимальная температура - максимум температуры воздуха на высоте 2 м над землей.
R - Количество осадков - Количество выпавших осадков за период времени, мм. При наведении курсора мыши на число - период времени, за который выпало указанное количество осадков.
R24 - Количество осадков - Количество выпавших осадков за 24 часа, мм.
S - Снежный покров - Высота снежного покрова, см. При наведении курсора мыши на число - состояние снежного покрова и степень покрытия местности в баллах.